Aérodrome :
LOGIN :

S'inscrire | Disclaimer

   EN    FR    IT 

 










Légende :    VFR   VFR Marginal   IFR   IFR Intensif   IFR Très Intensif
Visi : 
Plafond : 
>= 8 km
>= 3000ft
5 à 8 km
1000 à 3000 ft
1500m à 5 km
500 à 1000 ft
800 à 1500m
200 à 500 ft
< 800m
< 200 ft
Symboles :   Orages  Brouillard  Fortes neiges  Fortes précipitations  Vent > 20 kt
SIGMETs :   Divers  Orages  Givrage  Turbulence  Onde Orograph.  Cendres Volcan.







- Altitude de l'aérodrome : 74 ft
- Code IATA : MRS
- Voir les cartes d'approche


LFML - Marseille / Marignane

DERNIER METAR :
  • 151530Z AUTO 26010KT CAVOK 09/02 Q1003 NOSIG

METARs EXPIRÉS :
  • 151500Z AUTO 28012KT CAVOK 10/02 Q1003 NOSIG
  • 151430Z AUTO 31012KT CAVOK 11/01 Q1003 NOSIG
  • 151400Z AUTO 29012KT CAVOK 12/02 Q1003 NOSIG
  • 151330Z AUTO 27009KT 9999 FEW048 BKN220 11/03 Q1003 NOSIG
  • 151300Z AUTO 27010KT 9999 FEW043 BKN220 10/04 Q1003 NOSIG

TAF TAF LFML
Valide du 15 à 15h jusqu'au 16 à 21h UTC


151400Z 1515/1621 30010KT CAVOK
BECMG 1610/1612 32020KT
TEMPO 1612/1621 32020G33KT TX11/1515Z TN04/1604Z
ATIS : +33 4 42 31 15 15
Pas de NOTAMs connus pour ce terrain.



MET'MAP, la Météo Aéronautique d'un coup d'oeil ! - Copyright ORBIFLY Décembre 2007 - Disclaimer

ORBIFLY MET'MAP TEAM :

Programmation & Développement : Alexandra Zaïnal
Conception & Développement : Baudouin d'Aumeries
Co-Programmation & Développement : Marc-Olivier Méhu
Soutien technique & logistique : Manuel Goepfert

Contact : metmap@orbifly.com




SOURCES & CREDITS :

   NOAA